This demonstration page uses our WeatherBlox Daily Observations layout. Learn more.

Hourly Observations for June 14, 2018

Temp ( °F °C ) Dew Point ( °F °C ) Humidity (%) Winds ( mph kmh ) Pressure ( in mb ) Visibility ( mi km ) Precip ( " mm )
12:15 am 00:15 Clear 71 21.5 66 19 86 86 SE 13 20 29.83 1010 10 16.0934 0 0
12:35 am 00:35 Clear 71 21.5 67 19.2 87 87 SE 13 20 29.83 1010 10 16.0934 0 0
12:55 am 00:55 Clear 70 21.1 67 19.6 91 91 SSE 12 19 29.83 1010 10 16.0934 0 0
1:15 am 01:15 Clear 70 21.1 68 20 93 93 SE 10 17 29.8 1009 10 16.0934 0 0
1:35 am 01:35 Clear 70 21.1 69 20.3 95 95 SSE 9 15 29.83 1010 10 16.0934 0 0
1:55 am 01:55 Clear 70 21.3 69 20.8 97 97 SSE 10 17 29.8 1009 10 16.0934 0 0
2:15 am 02:15 Clear 70 21.3 69 20.8 97 97 SSE 12 19 29.8 1009 10 16.0934 0 0
2:35 am 02:35 Clear 70 21.1 69 20.8 98 98 SSE 9 15 29.8 1009 10 16.0934 0 0
2:55 am 02:55 Clear 70 21 69 20.7 98 98 SSE 8 13 29.8 1009 7 11.26538 0 0
3:15 am 03:15 Clear 69 20.8 69 20.8 100 100 SSE 9 15 29.8 1009 7 11.26538 0 0
3:35 am 03:35 Clear 70 21 69 20.8 99 99 SSE 10 17 29.77 1008 7 11.26538 0 0
3:55 am 03:55 Clear 70 21.1 70 20.9 99 99 S 9 15 29.8 1009 10 16.0934 0 0
4:15 am 04:15 Clear 70 21.3 69 20.5 95 95 S 9 15 29.77 1008 10 16.0934 0 0
4:35 am 04:35 Clear 71 21.5 69 20.5 94 94 SSE 10 17 29.77 1008 10 16.0934 0 0
4:55 am 04:55 Clear 70 21.1 68 20 93 93 S 8 13 29.77 1008 10 16.0934 0 0
5:15 am 05:15 Clear 70 21.1 67 19.6 91 91 S 10 17 29.77 1008 10 16.0934 0 0
5:35 am 05:35 Clear 70 21.1 67 19.5 91 91 S 12 19 29.77 1008 10 16.0934 0 0
5:55 am 05:55 Clear 70 21 67 19.4 91 91 S 9 15 29.77 1008 10 16.0934 0 0
6:15 am 06:15 Sunny 69 20.8 67 19.3 91 91 S 12 19 29.74 1007 10 16.0934 0 0
6:35 am 06:35 Sunny 70 20.9 66 19.1 90 90 S 9 15 29.74 1007 10 16.0934 0 0
6:55 am 06:55 Sunny 70 21.1 66 19.1 88 88 S 12 19 29.74 1007 10 16.0934 0 0
7:15 am 07:15 Sunny 71 21.5 67 19.3 87 87 S 10 17 29.71 1006 10 16.0934 0 0
7:35 am 07:35 Sunny 72 22 66 19 83 83 S 10 17 29.71 1006 10 16.0934 0 0
7:55 am 07:55 Sunny 73 22.5 66 19.1 81 81 S 12 19 29.71 1006 10 16.0934 0 0
8:15 am 08:15 Sunny 74 23.1 67 19.2 79 79 S 14 22 29.71 1006 10 16.0934 0 0
8:35 am 08:35 Sunny 75 24.1 66 18.7 72 72 S 10 17 29.71 1006 10 16.0934 0 0
8:55 am 08:55 Sunny 77 25 65 18.4 67 67 S 13 20 29.68 1005 10 16.0934 0 0
9:15 am 09:15 Sunny 78 25.6 65 18.2 64 64 SW 15 24 29.68 1005 10 16.0934 0 0
9:35 am 09:35 Sunny 79 26 64 18 61 61 SSW 17 28 29.68 1005 10 16.0934 0 0
9:55 am 09:55 Sunny 80 26.5 64 17.9 59 59 S 18 30 29.65 1004 10 16.0934 0 0
10:15 am 10:15 Sunny 81 27 64 18 58 58 SSW 17 28 29.65 1004 10 16.0934 0 0
10:35 am 10:35 Sunny 82 27.7 64 17.9 55 55 SSW 17 28 29.65 1004 10 16.0934 0 0
10:55 am 10:55 Sunny 83 28.4 64 17.9 53 53 SSW 16 26 29.62 1003 10 16.0934 0 0
11:15 am 11:15 Sunny 85 29.3 65 18.4 52 52 S 12 19 29.62 1003 10 16.0934 0 0
11:35 am 11:35 Sunny 86 30.1 65 18.4 50 50 S 14 22 29.62 1003 10 16.0934 0 0
11:55 am 11:55 Sunny 87 30.8 65 18.2 47 47 S 14 22 29.62 1003 10 16.0934 0 0
12:15 pm 12:15 Sunny 89 31.5 64 17.7 44 44 S 15 24 29.62 1003 10 16.0934 0 0
12:35 pm 12:35 Sunny 89 31.8 65 18.1 44 44 S 14 22 29.62 1003 10 16.0934 0 0
12:55 pm 12:55 Sunny 91 32.7 63 17.3 40 40 SSW 17 28 29.59 1002 10 16.0934 0 0
1:15 pm 13:15 Sunny 92 33.4 62 16.9 37 37 S 16 26 29.59 1002 10 16.0934 0 0
1:35 pm 13:35 Sunny 93 33.8 63 17.3 37 37 SSE 18 30 29.59 1002 10 16.0934 0 0
1:55 pm 13:55 Sunny 93 34.1 64 17.7 38 38 SSE 21 33 29.59 1002 10 16.0934 0 0
2:15 pm 14:15 Sunny 94 34.2 63 17.3 37 37 S 20 31 29.59 1002 10 16.0934 0 0
2:35 pm 14:35 Sunny 93 33.9 63 17.2 37 37 S 22 35 29.59 1002 10 16.0934 0 0
2:55 pm 14:55 Sunny 94 34.5 62 16.9 35 35 S 24 39 29.59 1002 10 16.0934 0 0
3:15 pm 15:15 Sunny 94 34.4 63 17.3 36 36 S 22 35 29.56 1001 10 16.0934 0 0
3:35 pm 15:35 Sunny 95 35 63 17.1 34 34 S 23 37 29.56 1001 10 16.0934 0 0
3:55 pm 15:55 Sunny 95 35.2 62 16.4 33 33 S 23 37 29.56 1001 10 16.0934 0 0
4:15 pm 16:15 Sunny 95 35.1 62 16.5 33 33 S 22 35 29.56 1001 10 16.0934 0 0
4:35 pm 16:35 Sunny 95 35.1 61 16.1 32 32 S 18 30 29.56 1001 10 16.0934 0 0
4:55 pm 16:55 Sunny 95 35.2 60 15.5 31 31 S 25 41 29.56 1001 10 16.0934 0 0
5:15 pm 17:15 Sunny 96 35.5 60 15.3 30 30 S 20 31 29.53 1000 10 16.0934 0 0
5:35 pm 17:35 Sunny 96 35.5 59 15.2 30 30 S 21 33 29.53 1000 10 16.0934 0 0
5:55 pm 17:55 Sunny 95 35.2 59 15 30 30 S 17 28 29.53 1000 10 16.0934 0 0
6:15 pm 18:15 Sunny 96 35.3 59 14.8 29 29 S 18 30 29.53 1000 10 16.0934 0 0
6:35 pm 18:35 Sunny 95 34.8 60 15.3 31 31 S 18 30 29.53 1000 10 16.0934 0 0
6:55 pm 18:55 Sunny 94 34.5 59 15.1 31 31 S 15 24 29.53 1000 10 16.0934 0 0
7:15 pm 19:15 Sunny 93 33.9 60 15.4 33 33 S 17 28 29.5 999 10 16.0934 0 0
7:35 pm 19:35 Sunny 92 33.3 62 16.4 36 36 SSE 18 30 29.5 999 10 16.0934 0 0
7:55 pm 19:55 Sunny 91 33 60 15.5 35 35 SSE 21 33 29.5 999 10 16.0934 0 0
8:15 pm 20:15 Sunny 89 31.9 60 15.5 37 37 SSE 15 24 29.5 999 10 16.0934 0 0
8:35 pm 20:35 Sunny 88 31.1 60 15.3 38 38 SSE 15 24 29.53 1000 10 16.0934 0 0
8:55 pm 20:55 Sunny 87 30.7 59 15.2 39 39 SSE 14 22 29.53 1000 10 16.0934 0 0
9:15 pm 21:15 Clear 86 29.8 59 15.2 41 41 SSE 14 22 29.56 1001 10 16.0934 0 0
9:35 pm 21:35 Clear 85 29.5 60 15.3 42 42 SSE 14 22 29.56 1001 10 16.0934 0 0
9:55 pm 21:55 Clear 84 28.9 60 15.5 44 44 SSE 14 22 29.56 1001 10 16.0934 0 0
10:15 pm 22:15 Clear 84 28.7 60 15.5 45 45 SSE 16 26 29.56 1001 10 16.0934 0 0
10:35 pm 22:35 Clear 84 29.1 60 15.5 44 44 S 20 31 29.59 1002 10 16.0934 0 0
10:55 pm 22:55 Clear 83 28.5 60 15.8 46 46 S 16 26 29.59 1002 10 16.0934 0 0
11:15 pm 23:15 Clear 83 28.2 61 16 48 48 S 15 24 29.59 1002 10 16.0934 0 0
11:35 pm 23:35 Clear 82 28 61 16.2 49 49 S 17 28 29.62 1003 10 16.0934 0 0
11:55 pm 23:55 Clear 82 27.9 61 16.3 49 49 S 18 30 29.62 1003 10 16.0934 0 0

Powered by AerisWeather